SL-3 R/B, 5918

Orbit data source: Space-Track

SL-3 R/B, 5918 is space debris in LEO originally from a launch on Thu, 30 Mar 1972 UTC launched from the Plesetsk Missile And Space Complex (PKMTR). Debris objects in space refer to the collection of defunct objects orbiting the Earth. Examples of debris include non-operational satellites, rocket bodies, and fragments generated from explosions, collisions, or faulty payload assembly.

Loading next visibility...
Identifier
5918, 1972-022B
Orbit
LEO
Country
Flag of CISCIS
Related business
Manufacturer
Progress
Mission
Spacecraft
Bus & Motor
BLOK-E, Unknown motor
Mass
1,440 kg wet, 1,440 kg dry
Launch date (UTC)
1972-03-30 (54 years ago)
Launch vehicle
Unknown
Launch site
Plesetsk Missile And Space Complex (PKMTR)
Object type
Payload
Rocket body
Debris
Shape & HBR
Unknown
Radar Cross Section
Large (>1 m²)

Expand to show TLE details & history
Last TLE update: 11 hours ago

TLE from 11 hours ago
0 SL-3 R/B
1 05918U 72022B   25354.87108331  .00000035  00000-0  13997-4 0  9997
2 05918  81.2361 198.0990 0057232 229.8796 129.7351 14.06281943754556
Epoch: 2025-12-20T20:54Z
TLE epoch observation values (Epoch: 2025-12-20T20:54:21.597Z)
Latitude
-0°
Longitude
154.81734°
Altitude
901.687 km
Speed
7.388 km/s
True Right ascension
13h 12m 23s
True Declination
0° 00' 00"
Sunlit
Object was in daylight at epoch
Visualization orbit readout
Latitude
Unknown
Longitude
Unknown
Altitude
Unknown
Speed
Unknown
Apparent Right ascension
Unknown
Apparent Declination
Unknown
Sunlit
N/A
Visualization observer readout
Local Sidereal Time
07:03:28
Azimuth
Unknown
Elevation
Unknown
Doppler factor
Unknown
Orbital elements
Apogee altitude
910.781 km
Perigee altitude
827.824 km
Semi-major axis
7,247.439 km
Eccentricity
0.00572
Inclination
81.2361°
RAAN
198.099°
Arg. of periapsis
229.8796°
True anomaly
130.23714°
Mean anomaly
129.7351°
Eccentric anomaly
129.98635°
Mean motion
3.51776 °/min
Orbital period
102.34 mins
BSTAR
0.000013997
Loading maneuver chart data...
Computing Atmospheric mass density...
Loading historical data...
Loading historical data...
Loading historical data...
Loading historical data...
Loading historical data...
Loading historical data...
Loading historical data...

Documentation

Showing up to 5 results
|